Tracking 19377 objects as of 11-Dec-2018
HD Live streaming from Space Station
objects crossing your sky now

COSMOS 1030 DEB

Track COSMOS 1030 DEB now!


NORAD ID: 39447
Int'l Code: 1978-083T
Perigee: 4,206.6 km
Apogee: 36,214.7 km
Inclination: 68.1 °
Period: 718.8 minutes
Semi major axis: 26581 km
RCS: Unknown
Launch date: September 6, 1978
Source: Commonwealth of Independent States (former USSR) (CIS)
Launch site: PLESETSK MISSILE AND SPACE COMPLEX (PKMTR)

Note: This is SATELLITE DEBRIS
aabbcc
Your satellite tracking list
Your tracking list is empty




NASA's NSSDC Master Catalog

Two Line Element Set (TLE):
1 39447U 78083T   18338.12283222 -.00000957  00000-0  00000+0 0  9999
2 39447  68.0523  59.2718 6020707  38.4843 351.8703  2.00322406 36855
Source of the keplerian elements: AFSPC